Milan, NH

1:23 AM EDT on August 29, 2016 (GMT -0400)
Berlin Municipal

Weather History for KBML - March, 2013

Change the Weather History Date:

Saturday, March 9, 2013

  Actual Average Record
Temperature  
Mean Temperature 29 °F -  
Max Temperature 53 °F 30 °F 62 °F (2016)
Min Temperature 5 °F 8 °F -27 °F (2007)
Degree Days  
Heating Degree Days 36    
Moisture  
Dew Point 11 °F    
Average Humidity 69    
Maximum Humidity 95    
Minimum Humidity 17    
Precipitation  
Precipitation 0.00 in - - ()
Sea Level Pressure  
Sea Level Pressure 30.31 in    
Wind  
Wind Speed 0 mph (NNW)    
Max Wind Speed 8 mph    
Max Gust Speed -    
Visibility 8 miles    
Events      
Averages and records for this station are not official NWS values.
T = Trace of Precipitation, MM = Missing Value Source: NWS Daily Summary

Daily Weather History Graph

Daily Weather History Graph

Search for Another Location

Airport or City:

Trip Planner

Search our weather history database for the weather conditions in past years. The results will help you decide how hot, cold, wet, or windy it might be!

Date:

Astronomy

Mar. 09, 2013 Rise Set
Actual Time 6:07 AM EST 5:43 PM EST
Civil Twilight 5:38 AM EST 6:12 PM EST
Nautical Twilight 5:04 AM EST 6:46 PM EST
Astronomical Twilight 4:30 AM EST 7:20 PM EST
Moon 4:34 AM EST (3/9) 3:38 PM EST (3/9)
Length of Visible Light 12h 33m
Length of Day
11h 35m
Waning Crescent, 5% of the Moon is Illuminated
Mar 9
Waning Crescent
Mar 11
New
Mar 19
First Quarter
Mar 27
Full
Apr 3
Last Quarter

Hourly Weather History & Observations

Time (EST) Temp. Windchill Dew Point Humidity Pressure Visibility Wind Dir Wind Speed Gust Speed Precip Events Conditions
12:52 AM 14.0 °F - 10.9 °F 88% 30.30 in 7.0 mi Calm Calm - N/A   Partly Cloudy
1:52 AM 12.0 °F - 8.1 °F 84% 30.30 in 10.0 mi Calm Calm - N/A   Clear
2:21 AM 12.2 °F - 6.8 °F 79% 30.24 in 1.8 mi Calm Calm - N/A   Haze
2:27 AM 12.2 °F - 10.4 °F 92% 30.24 in 1.0 mi Calm Calm - N/A   Mist
2:32 AM 10.4 °F - 8.6 °F 92% 30.24 in 1.5 mi Calm Calm - N/A   Partly Cloudy
2:35 AM 10.4 °F - 6.8 °F 85% 30.24 in 1.0 mi Calm Calm - N/A   Mist
2:44 AM 8.6 °F - 5.0 °F 85% 30.24 in 1.8 mi Calm Calm - N/A   Partly Cloudy
2:46 AM 8.6 °F - 5.0 °F 85% 30.24 in 3.0 mi Calm Calm - N/A   Partly Cloudy
2:52 AM 9.0 °F - 5.0 °F 84% 30.29 in 10.0 mi Calm Calm - N/A   Clear
3:52 AM 10.0 °F - 5.0 °F 80% 30.29 in 10.0 mi Calm Calm - N/A   Clear
4:52 AM 7.0 °F - 1.9 °F 80% 30.32 in 10.0 mi Calm Calm - N/A   Clear
5:25 AM 5.0 °F - 1.4 °F 85% 30.26 in 10.0 mi Calm Calm - N/A   Partly Cloudy
5:52 AM 6.1 °F - 1.0 °F 80% 30.34 in 10.0 mi Calm Calm - N/A   Clear
6:52 AM 6.1 °F - 3.0 °F 87% 30.37 in 10.0 mi Calm Calm - N/A   Clear
7:52 AM 12.0 °F - 10.9 °F 95% 30.36 in 10.0 mi Calm Calm - N/A   Clear
8:52 AM 21.0 °F - 17.1 °F 85% 30.35 in 10.0 mi Calm Calm - N/A   Clear
9:52 AM 28.0 °F - 19.9 °F 72% 30.35 in 10.0 mi Calm Calm - N/A   Clear
10:52 AM 39.0 °F - 16.0 °F 39% 30.32 in 10.0 mi Calm Calm - N/A   Clear
11:52 AM 44.1 °F - 12.0 °F 27% 30.31 in 10.0 mi Calm Calm - N/A   Clear
12:52 PM 48.9 °F - 10.9 °F 22% 30.29 in 10.0 mi WNW 3.5 mph - N/A   Clear
1:52 PM 51.1 °F - 12.0 °F 21% 30.27 in 10.0 mi WNW 3.5 mph - N/A   Clear
2:52 PM 53.1 °F - 12.9 °F 20% 30.27 in 10.0 mi Calm Calm - N/A   Clear
3:52 PM 53.1 °F - 9.0 °F 17% 30.27 in 10.0 mi North 8.1 mph - N/A   Clear
4:52 PM 51.1 °F - 10.9 °F 20% 30.29 in 10.0 mi North 5.8 mph - N/A   Clear
5:52 PM 44.1 °F 42.5 °F 21.0 °F 40% 30.32 in 10.0 mi NNW 3.5 mph - N/A   Clear
6:52 PM 30.0 °F - 21.9 °F 72% 30.35 in 10.0 mi Calm Calm - N/A   Clear
7:52 PM 26.1 °F - 21.0 °F 81% 30.36 in 10.0 mi Calm Calm - N/A   Clear
8:52 PM 23.0 °F - 19.0 °F 85% 30.37 in 10.0 mi Calm Calm - N/A   Clear
9:52 PM 21.9 °F - 19.0 °F 89% 30.36 in 10.0 mi Calm Calm - N/A   Clear
10:52 PM 19.9 °F - 17.1 °F 89% 30.36 in 10.0 mi Calm Calm - N/A   Clear
11:52 PM 18.0 °F - 14.0 °F 84% 30.37 in 10.0 mi Calm Calm - N/A   Clear